Location: Cheyres
(46.8153°N, 6.7877°E)
Time: 04:22:01
(UTC+00:00)

USA 305 - Pass Details

Date: 11 May 2021
Orbit: 567 x 573 km, 54.0° (Epoch: 07 May)

Event Time Altitude Azimuth Distance (km) Brightness Sun altitude
Rises 22:01:48 0° 298° (WNW) 2,775 7.2 -22.1°
Reaches altitude 10° 22:04:12 10° 289° (WNW) 1,875 6.0 -22.3°
Enters shadow 22:07:27 32° 242° (WSW) 991 4.0 -22.5°
